This is the latest recevied weather packets stored in our database for station/object MM0ZFG-5. If no packets are shown the sender has not sent any weather packets the latest 10 day(s).
| Time | Temp. | Humidity | Pressure | Rain* | Wind** | Luminosity | Snow |
|---|---|---|---|---|---|---|---|
| 1778055485 | 6.67° C | 68% | 1013.6 hPa | 0 mm | - | - | - |
| 1778053504 | 6.67° C | 67% | 1013.8 hPa | 0 mm | - | - | - |
| 1778050803 | 6.11° C | 71% | 1013.8 hPa | 0 mm | - | - | - |
| 1778049365 | 5.56° C | 72% | 1013.6 hPa | 0 mm | - | - | - |
| 1778042703 | 5° C | 75% | 1013.5 hPa | 0 mm | - | - | - |
| 1778042164 | 5° C | 75% | 1013.6 hPa | 0 mm | - | - | - |
| 1778041624 | 5° C | 74% | 1013.6 hPa | 0 mm | - | - | - |
| 1778040545 | 5° C | 73% | 1013.8 hPa | 0 mm | - | - | - |
| 1778038585 | 5.56° C | 72% | 1013.7 hPa | 0 mm | - | - | - |
| 1778036405 | 5.56° C | 72% | 1014 hPa | 0 mm | - | - | - |
| 1778033344 | 5.56° C | 72% | 1013.8 hPa | 0 mm | - | - | - |
| 1778031363 | 6.11° C | 71% | 1014.1 hPa | 0 mm | - | - | - |
| 1778030284 | 6.11° C | 71% | 1014 hPa | 0 mm | - | - | - |
| 1778028843 | 6.11° C | 73% | 1014.3 hPa | 0 mm | - | - | - |
| 1778028305 | 6.11° C | 73% | 1014.4 hPa | 0 mm | - | - | - |
| 1778025244 | 6.11° C | 73% | 1014.4 hPa | 0 mm | - | - | - |
| 1778023623 | 6.11° C | 73% | 1014.2 hPa | 0 mm | - | - | - |
| 1778023085 | 6.67° C | 72% | 1014.2 hPa | 0 mm | - | - | - |
| 1778021645 | 6.67° C | 70% | 1014.6 hPa | 0 mm | - | - | - |
| 1778014465 | 7.22° C | 70% | 1014.3 hPa | 0 mm | - | - | - |
| 1778011766 | 7.22° C | 67% | 1013.9 hPa | 0 mm | - | - | - |
| 1778007605 | 8.33° C | 71% | 1013.6 hPa | 0 mm | - | - | - |
| 1778004544 | 9.44° C | 67% | 1013.1 hPa | 0 mm | - | - | - |
| 1778000943 | 10.56° C | 65% | 1012.9 hPa | 0 mm | - | - | - |
| 1777998445 | 11.67° C | 63% | 1012.5 hPa | 0 mm | - | - | - |
* Rain latest hour (hover to see other rain measurements)
** Current wind speed in m/s (hover to see current wind gust speed)